| time (UTC) | temp F | wind direction | speed knots | gust knots | rain 1hr in | rain 24hr in | rain mn in | humidity % | barometer mb |
| 20260507100009 | 71 | 177 | 2.6 | 7.0 | 0.00 | 0.00 | 0.00 | 51 | 1004.3 |
| 20260507094507 | 71 | 181 | 2.6 | 5.2 | 0.00 | 0.00 | 0.00 | 52 | 1004.5 |
| 20260507093005 | 70 | 55 | 1.7 | 7.0 | 0.00 | 0.00 | 0.00 | 54 | 1004.5 |
| 20260507091503 | 69 | 99 | 3.5 | 7.8 | 0.00 | 0.00 | 0.00 | 55 | 1004.6 |
| 20260507090105 | 68 | 192 | 2.6 | 7.0 | 0.00 | 0.00 | 0.00 | 55 | 1004.6 |
| 20260507084558 | 66 | 113 | 1.7 | 7.0 | 0.00 | 0.00 | 0.00 | 59 | 1004.6 |
| 20260507083048 | 64 | 71 | 1.7 | 5.2 | 0.00 | 0.00 | 0.00 | 67 | 1004.6 |
| 20260507081544 | 62 | 5 | 0.9 | 3.5 | 0.00 | 0.00 | 0.00 | 69 | 1004.4 |
| 20260507080040 | 62 | 136 | 0.9 | 3.5 | 0.00 | 0.00 | 0.00 | 73 | 1004.5 |
| 20260507074537 | 61 | 146 | 0.9 | 1.7 | 0.00 | 0.00 | 0.00 | 75 | 1004.5 |
| 20260507073034 | 60 | 146 | 0.0 | 1.7 | 0.00 | 0.00 | 0.00 | 76 | 1004.3 |
| 20260507071534 | 59 | 134 | 0.0 | 1.7 | 0.00 | 0.00 | 0.00 | 78 | 1004.2 |
| 20260507070041 | 58 | 126 | 0.9 | 2.6 | 0.00 | 0.00 | 0.00 | 80 | 1004.0 |
| 20260507064528 | 57 | 5 | 0.0 | 1.7 | 0.00 | 0.00 | 0.00 | 82 | 1003.8 |
| 20260507063028 | 57 | 5 | 0.0 | 2.6 | 0.00 | 0.00 | 0.00 | 82 | 1003.9 |
| 20260507061526 | 56 | 344 | 0.0 | 1.7 | 0.00 | 0.00 | 0.00 | 82 | 1003.9 |
| 20260507060030 | 56 | 327 | 0.0 | 1.7 | 0.00 | 0.00 | 0.00 | 82 | 1003.7 |
| 20260507054523 | 55 | 306 | 0.0 | 1.7 | 0.00 | 0.00 | 0.00 | 82 | 1003.6 |
| 20260507053022 | 55 | 306 | 0.0 | 0.9 | 0.00 | 0.00 | 0.00 | 81 | 1003.5 |
| 20260507051520 | 55 | 125 | 0.0 | 0.9 | 0.00 | 0.00 | 0.00 | 81 | 1003.5 |
| 20260507050026 | 55 | 355 | 0.0 | 1.7 | 0.00 | 0.00 | 0.00 | 80 | 1003.2 |
| 20260507044516 | 56 | 355 | 0.9 | 2.6 | 0.00 | 0.00 | 0.00 | 79 | 1003.0 |
| 20260507043014 | 56 | 348 | 0.0 | 1.7 | 0.00 | 0.00 | 0.00 | 78 | 1002.9 |
| 20260507041513 | 56 | 347 | 0.0 | 3.5 | 0.00 | 0.00 | 0.00 | 77 | 1002.8 |
| 20260507040010 | 56 | 344 | 0.9 | 2.6 | 0.00 | 0.00 | 0.00 | 77 | 1002.8 |
| 20260507034510 | 56 | 344 | 0.0 | 3.5 | 0.00 | 0.00 | 0.00 | 76 | 1002.5 |
| 20260507033010 | 57 | 171 | 0.0 | 5.2 | 0.00 | 0.00 | 0.00 | 77 | 1002.6 |
| 20260507031506 | 57 | 144 | 3.5 | 6.1 | 0.00 | 0.00 | 0.00 | 76 | 1002.2 |
| 20260507030005 | 57 | 130 | 2.6 | 5.2 | 0.00 | 0.00 | 0.00 | 75 | 1002.4 |
| 20260507024507 | 58 | 162 | 2.6 | 8.7 | 0.00 | 0.00 | 0.00 | 74 | 1002.3 |
| 20260507023002 | 57 | 134 | 5.2 | 8.7 | 0.00 | 0.00 | 0.00 | 74 | 1002.2 |
| 20260507021601 | 57 | 148 | 0.9 | 3.5 | 0.00 | 0.00 | 0.00 | 75 | 1002.4 |
| 20260507014605 | 58 | 160 | 1.7 | 5.2 | 0.00 | 0.00 | 0.00 | 76 | 1002.5 |
| 20260507013102 | 58 | 184 | 2.6 | 6.1 | 0.00 | 0.00 | 0.00 | 76 | 1002.4 |
| 20260507011558 | 58 | 168 | 4.3 | 6.1 | 0.00 | 0.00 | 0.00 | 76 | 1002.4 |
| 20260507010053 | 58 | 136 | 2.6 | 6.1 | 0.00 | 0.00 | 0.00 | 75 | 1002.4 |
| 20260507004552 | 59 | 168 | 4.3 | 8.7 | 0.00 | 0.00 | 0.00 | 75 | 1002.4 |
| 20260507003050 | 59 | 175 | 2.6 | 8.7 | 0.00 | 0.00 | 0.00 | 74 | 1002.3 |
| 20260507001549 | 59 | 205 | 2.6 | 8.7 | 0.00 | 0.00 | 0.00 | 74 | 1002.3 |
| 20260507000048 | 59 | 213 | 5.2 | 10.4 | 0.00 | 0.00 | 0.00 | 73 | 1002.4 |
| 20260506234553 | 59 | 192 | 4.3 | 8.7 | 0.00 | 0.00 | 0.00 | 74 | 1002.4 |
| 20260506233049 | 59 | 179 | 5.2 | 10.4 | 0.00 | 0.00 | 0.00 | 75 | 1002.3 |
| 20260506231544 | 59 | 189 | 3.5 | 7.8 | 0.00 | 0.00 | 0.00 | 74 | 1002.5 |
| 20260506230035 | 59 | 204 | 1.7 | 4.3 | 0.00 | 0.00 | 0.00 | 74 | 1002.7 |
| 20260506224534 | 59 | 184 | 0.0 | 4.3 | 0.00 | 0.00 | 0.00 | 74 | 1002.6 |
| 20260506223029 | 59 | 242 | 1.7 | 4.3 | 0.00 | 0.00 | 0.00 | 74 | 1002.4 |
| 20260506221527 | 59 | 192 | 1.7 | 4.3 | 0.00 | 0.00 | 0.00 | 75 | 1002.3 |
| 20260506220025 | 59 | 199 | 1.7 | 3.5 | 0.00 | 0.00 | 0.00 | 75 | 1002.1 |
| 20260506214525 | 59 | 246 | 1.7 | 3.5 | 0.00 | 0.00 | 0.00 | 75 | 1002.0 |
| 20260506213024 | 59 | 241 | 2.6 | 6.1 | 0.00 | 0.00 | 0.00 | 75 | 1002.0 |
| 20260506211525 | 59 | 232 | 0.9 | 3.5 | 0.00 | 0.00 | 0.00 | 76 | 1002.1 |
| 20260506210028 | 59 | 175 | 0.0 | 3.5 | 0.00 | 0.00 | 0.00 | 75 | 1001.9 |
| 20260506204522 | 59 | 190 | 1.7 | 3.5 | 0.00 | 0.00 | 0.00 | 75 | 1001.9 |
| 20260506203032 | 60 | 198 | 1.7 | 4.3 | 0.00 | 0.00 | 0.00 | 74 | 1001.8 |
| 20260506201521 | 60 | 195 | 1.7 | 5.2 | 0.00 | 0.00 | 0.00 | 73 | 1001.8 |
| 20260506200019 | 60 | 174 | 3.5 | 6.1 | 0.00 | 0.00 | 0.00 | 73 | 1001.8 |
| 20260506194520 | 60 | 182 | 1.7 | 5.2 | 0.00 | 0.00 | 0.00 | 73 | 1001.7 |
| 20260506193019 | 60 | 161 | 1.7 | 3.5 | 0.00 | 0.00 | 0.00 | 73 | 1001.5 |
| 20260506191521 | 60 | 148 | 0.9 | 4.3 | 0.00 | 0.00 | 0.00 | 72 | 1001.4 |
| 20260506190018 | 61 | 169 | 0.9 | 6.1 | 0.00 | 0.00 | 0.00 | 72 | 1001.2 |
| 20260506184518 | 61 | 180 | 3.5 | 6.1 | 0.00 | 0.00 | 0.00 | 71 | 1000.9 |
| 20260506183017 | 61 | 161 | 2.6 | 7.0 | 0.00 | 0.00 | 0.00 | 70 | 1000.7 |
| 20260506181516 | 62 | 153 | 3.5 | 7.8 | 0.00 | 0.00 | 0.00 | 69 | 1000.4 |
| 20260506180019 | 62 | 166 | 2.6 | 10.4 | 0.00 | 0.00 | 0.00 | 70 | 1000.2 |
| 20260506174519 | 62 | 178 | 3.5 | 11.3 | 0.00 | 0.00 | 0.00 | 69 | 1000.2 |
| 20260506173018 | 63 | 190 | 6.1 | 12.2 | 0.00 | 0.00 | 0.00 | 69 | 1000.2 |
| 20260506171515 | 64 | 169 | 7.0 | 13.9 | 0.00 | 0.00 | 0.00 | 68 | 1000.1 |
| 20260506170013 | 64 | 185 | 5.2 | 11.3 | 0.00 | 0.00 | 0.00 | 70 | 1000.2 |
| 20260506164510 | 65 | 178 | 4.3 | 12.2 | 0.00 | 0.00 | 0.00 | 67 | 1000.4 |
| 20260506163008 | 66 | 130 | 6.1 | 13.0 | 0.00 | 0.00 | 0.00 | 67 | 1000.6 |
| 20260506161507 | 66 | 166 | 7.0 | 16.5 | 0.00 | 0.00 | 0.00 | 66 | 1000.8 |
| 20260506160006 | 65 | 173 | 7.8 | 20.0 | 0.00 | 0.00 | 0.00 | 66 | 1000.8 |
| 20260506154505 | 65 | 180 | 4.3 | 13.9 | 0.00 | 0.00 | 0.00 | 66 | 1000.8 |
| 20260506153004 | 66 | 222 | 7.8 | 14.8 | 0.00 | 0.00 | 0.00 | 64 | 1000.9 |
| 20260506151503 | 65 | 152 | 11.3 | 19.1 | 0.00 | 0.00 | 0.00 | 64 | 1000.9 |
| 20260506150002 | 66 | 180 | 9.6 | 16.5 | 0.00 | 0.00 | 0.00 | 62 | 1000.9 |
| 20260506144503 | 67 | 183 | 8.7 | 22.6 | 0.00 | 0.00 | 0.00 | 62 | 1000.8 |
| 20260506143002 | 66 | 225 | 12.2 | 16.5 | 0.00 | 0.00 | 0.00 | 63 | 1000.9 |
| 20260506141600 | 68 | 178 | 10.4 | 22.6 | 0.00 | 0.00 | 0.00 | 60 | 1000.9 |
| 20260506140059 | 68 | 181 | 8.7 | 22.6 | 0.00 | 0.00 | 0.00 | 60 | 1000.8 |
| 20260506134557 | 68 | 254 | 10.4 | 23.5 | 0.00 | 0.00 | 0.00 | 58 | 1001.2 |
| 20260506133057 | 69 | 220 | 11.3 | 20.0 | 0.00 | 0.00 | 0.00 | 56 | 1001.1 |
| 20260506131602 | 70 | 278 | 7.8 | 17.4 | 0.00 | 0.00 | 0.00 | 55 | 1000.9 |
| 20260506130126 | 71 | 170 | 9.6 | 18.2 | 0.00 | 0.00 | 0.00 | 56 | 1001.0 |
| 20260506124559 | 70 | 224 | 11.3 | 20.9 | 0.00 | 0.00 | 0.00 | 54 | 1001.2 |
| 20260506123054 | 71 | 165 | 7.8 | 14.8 | 0.00 | 0.00 | 0.00 | 53 | 1000.9 |
| 20260506121555 | 72 | 167 | 7.8 | 16.5 | 0.00 | 0.00 | 0.00 | 51 | 1001.2 |
| 20260506120100 | 72 | 138 | 7.8 | 13.9 | 0.00 | 0.00 | 0.00 | 53 | 1001.2 |
| 20260506114551 | 72 | 180 | 5.2 | 16.5 | 0.00 | 0.00 | 0.00 | 55 | 1001.2 |
| 20260506113055 | 72 | 193 | 6.1 | 16.5 | 0.00 | 0.00 | 0.00 | 55 | 1001.3 |
| 20260506111548 | 71 | 186 | 5.2 | 12.2 | 0.00 | 0.00 | 0.00 | 56 | 1001.6 |
| 20260506110054 | 71 | 184 | 7.0 | 13.0 | 0.00 | 0.00 | 0.00 | 54 | 1001.9 |
| 20260506104552 | 69 | 142 | 6.1 | 12.2 | 0.00 | 0.00 | 0.00 | 55 | 1002.1 |
| 20260506103050 | 69 | 170 | 4.3 | 10.4 | 0.00 | 0.00 | 0.00 | 57 | 1002.1 |
| 20260506101555 | 69 | 176 | 7.0 | 12.2 | 0.00 | 0.00 | 0.00 | 57 | 1002.1 |